WXM80 ListenWXM80 Stop

You find our weather info also at:

UK Metoffice

WeatherCloud

Weather Underground

Northeastern Weather Network

AWEKAS

Citizen Weather Observer Program (CWOP)

HAMweather, WeatherForYou, PWS Weather


Weather Underground History page Text

Daily Summary for May 16, 2016 Units:  English    Metric   Both
« Previous Day
Next Day »
Daily Weekly Monthly Yearly Custom
  High: Low: Average:
Temperature: 66.2 °F 44.0 °F 53.6 °F
Dew Point: 43.0 °F 29.6 °F 34.8 °F
Humidity: 64 % 30 % 50 %
Wind Speed: 12.2 mph 0.0 mph 5.6 mph
Wind Gust: 27.0 mph - -
Wind:- - West
Pressure: 30.10 in 29.93 in -
Precipitation: 0.00 in    
Historical Graphs
 
 
Tabular Data for May 16, 2016
Time Temperature Dew Point Pressure Wind Wind Speed Wind Gust Humidity Rainfall Rate (Hourly)
00:04 47.0 °F 33.8 °F 29.93 in SW 6.7 mph 16.0 mph 60 % 0.00 in
00:09 46.9 °F 34.1 °F 29.93 in WNW 4.9 mph 8.1 mph 61 % 0.00 in
00:14 46.9 °F 34.1 °F 29.93 in West 5.9 mph 13.8 mph 61 % 0.00 in
00:19 46.9 °F 34.6 °F 29.93 in NW 6.2 mph 13.8 mph 62 % 0.00 in
00:25 46.8 °F 34.0 °F 29.93 in WNW 4.7 mph 13.8 mph 61 % 0.00 in
00:30 46.8 °F 34.5 °F 29.93 in WNW 5.4 mph 11.5 mph 62 % 0.00 in
00:35 46.8 °F 34.9 °F 29.94 in SW 6.6 mph 9.2 mph 63 % 0.00 in
00:40 46.8 °F 35.3 °F 29.94 in WSW 5.1 mph 7.0 mph 64 % 0.00 in
00:45 46.7 °F 34.4 °F 29.94 in West 6.1 mph 11.0 mph 62 % 0.00 in
00:50 46.7 °F 34.8 °F 29.94 in West 5.9 mph 10.4 mph 63 % 0.00 in
00:55 46.6 °F 34.7 °F 29.93 in West 5.8 mph 9.2 mph 63 % 0.00 in
01:00 46.5 °F 34.6 °F 29.93 in West 6.4 mph 15.0 mph 63 % 0.00 in
01:05 46.4 °F 34.1 °F 29.94 in NW 4.2 mph 10.4 mph 62 % 0.00 in
01:10 46.3 °F 33.6 °F 29.94 in WSW 3.4 mph 5.8 mph 61 % 0.00 in
01:16 46.2 °F 33.1 °F 29.94 in WNW 6.0 mph 12.7 mph 60 % 0.00 in
01:21 46.1 °F 32.6 °F 29.94 in West 6.4 mph 11.5 mph 59 % 0.00 in
01:26 46.1 °F 33.0 °F 29.94 in WNW 3.1 mph 8.0 mph 60 % 0.00 in
01:31 46.0 °F 32.9 °F 29.94 in WSW 4.3 mph 8.1 mph 60 % 0.00 in
01:36 45.9 °F 32.8 °F 29.94 in West 5.1 mph 9.2 mph 60 % 0.00 in
01:41 45.8 °F 32.7 °F 29.94 in West 7.1 mph 11.5 mph 60 % 0.00 in
01:46 45.7 °F 32.6 °F 29.94 in NW 6.6 mph 13.8 mph 60 % 0.00 in
01:51 45.7 °F 32.2 °F 29.94 in SW 9.3 mph 13.8 mph 59 % 0.00 in
01:56 45.6 °F 32.5 °F 29.94 in WSW 5.6 mph 11.0 mph 60 % 0.00 in
02:01 45.5 °F 32.4 °F 29.94 in WSW 8.7 mph 15.0 mph 60 % 0.00 in
02:07 45.4 °F 31.9 °F 29.94 in SW 8.2 mph 10.4 mph 59 % 0.00 in
02:12 45.4 °F 31.5 °F 29.94 in NW 8.4 mph 16.1 mph 58 % 0.00 in
02:17 45.2 °F 31.3 °F 29.94 in West 5.3 mph 9.2 mph 58 % 0.00 in
02:22 45.2 °F 32.1 °F 29.94 in WNW 6.5 mph 10.4 mph 60 % 0.00 in
02:27 45.1 °F 32.0 °F 29.95 in West 2.1 mph 5.8 mph 60 % 0.00 in
02:32 45.0 °F 31.9 °F 29.95 in West 5.8 mph 13.8 mph 60 % 0.00 in
02:37 44.9 °F 31.8 °F 29.95 in SW 3.4 mph 10.4 mph 60 % 0.00 in
02:42 44.8 °F 31.3 °F 29.95 in WNW 6.8 mph 11.5 mph 59 % 0.00 in
02:47 44.8 °F 31.8 °F 29.95 in West 4.8 mph 6.9 mph 60 % 0.00 in
02:52 44.7 °F 31.2 °F 29.95 in WNW 4.6 mph 11.5 mph 59 % 0.00 in
02:58 44.7 °F 31.2 °F 29.95 in WSW 4.9 mph 11.5 mph 59 % 0.00 in
03:03 44.6 °F 31.1 °F 29.95 in SW 4.0 mph 9.2 mph 59 % 0.00 in
03:08 44.5 °F 30.6 °F 29.95 in SW 7.4 mph 11.5 mph 58 % 0.00 in
03:13 44.5 °F 30.6 °F 29.94 in SW 8.2 mph 13.8 mph 58 % 0.00 in
03:18 44.4 °F 30.5 °F 29.94 in West 9.5 mph 18.4 mph 58 % 0.00 in
03:23 44.3 °F 30.0 °F 29.94 in SW 6.3 mph 12.0 mph 57 % 0.00 in
03:28 44.3 °F 30.0 °F 29.94 in West 7.4 mph 12.7 mph 57 % 0.00 in
03:33 44.3 °F 29.6 °F 29.95 in West 5.6 mph 11.5 mph 56 % 0.00 in
03:38 44.3 °F 29.6 °F 29.95 in WNW 5.1 mph 15.0 mph 56 % 0.00 in
03:43 44.2 °F 29.9 °F 29.95 in WSW 4.3 mph 6.9 mph 57 % 0.00 in
03:54 44.2 °F 29.9 °F 29.95 in West 6.2 mph 11.5 mph 57 % 0.00 in
04:04 44.2 °F 30.3 °F 29.96 in West 4.5 mph 9.0 mph 58 % 0.00 in
04:09 44.1 °F 30.3 °F 29.96 in WSW 5.3 mph 11.5 mph 58 % 0.00 in
04:14 44.1 °F 30.7 °F 29.96 in West 6.3 mph 12.7 mph 59 % 0.00 in
04:19 44.1 °F 30.7 °F 29.96 in SW 3.8 mph 9.2 mph 59 % 0.00 in
04:24 44.0 °F 30.6 °F 29.96 in WNW 5.4 mph 16.1 mph 59 % 0.00 in
04:29 44.0 °F 30.6 °F 29.96 in SW 4.5 mph 12.7 mph 59 % 0.00 in
04:34 44.0 °F 30.6 °F 29.96 in WSW 5.6 mph 10.4 mph 59 % 0.00 in
04:45 44.0 °F 31.0 °F 29.97 in SSW 3.4 mph 6.9 mph 60 % 0.00 in
04:50 44.0 °F 31.4 °F 29.97 in West 9.1 mph 10.4 mph 61 % 0.00 in
04:55 44.0 °F 31.0 °F 29.97 in SW 3.1 mph 12.7 mph 60 % 0.00 in
05:00 44.1 °F 31.9 °F 29.98 in SSW 2.2 mph 7.0 mph 62 % 0.00 in
05:05 44.0 °F 31.8 °F 29.98 in West 3.2 mph 5.8 mph 62 % 0.00 in
05:10 44.0 °F 32.2 °F 29.97 in SW 8.6 mph 19.6 mph 63 % 0.00 in
05:15 44.0 °F 31.8 °F 29.98 in WSW 5.6 mph 13.8 mph 62 % 0.00 in
05:20 44.0 °F 31.8 °F 29.98 in WSW 4.1 mph 9.2 mph 62 % 0.00 in
05:25 44.0 °F 32.2 °F 29.98 in West 6.3 mph 12.0 mph 63 % 0.00 in
05:31 44.0 °F 31.8 °F 29.98 in WSW 10.6 mph 10.6 mph 62 % 0.00 in
05:36 44.0 °F 31.8 °F 29.98 in WNW 5.5 mph 13.8 mph 62 % 0.00 in
05:41 44.0 °F 31.8 °F 29.98 in West 2.6 mph 12.7 mph 62 % 0.00 in
05:46 44.0 °F 31.8 °F 29.98 in WNW 3.8 mph 8.0 mph 62 % 0.00 in
05:51 44.0 °F 31.8 °F 29.98 in West 8.1 mph 15.0 mph 62 % 0.00 in
05:56 44.0 °F 32.2 °F 29.98 in West 6.5 mph 13.8 mph 63 % 0.00 in
06:01 44.0 °F 31.8 °F 29.99 in SW 3.1 mph 13.0 mph 62 % 0.00 in
06:06 44.1 °F 32.3 °F 29.99 in WSW 8.0 mph 10.4 mph 63 % 0.00 in
06:11 44.2 °F 32.0 °F 29.99 in SW 6.7 mph 17.3 mph 62 % 0.00 in
06:16 44.3 °F 32.5 °F 29.99 in SW 4.7 mph 11.5 mph 63 % 0.00 in
06:22 44.4 °F 32.6 °F 30.00 in SSW 9.8 mph 16.0 mph 63 % 0.00 in
06:27 44.6 °F 32.8 °F 30.00 in SW 8.2 mph 13.8 mph 63 % 0.00 in
06:32 44.8 °F 32.6 °F 30.00 in West 7.2 mph 17.3 mph 62 % 0.00 in
06:37 44.8 °F 32.6 °F 30.00 in WSW 8.0 mph 21.9 mph 62 % 0.00 in
06:42 44.9 °F 32.7 °F 30.00 in NW 6.5 mph 11.5 mph 62 % 0.00 in
06:47 45.0 °F 32.8 °F 30.00 in WNW 7.2 mph 11.5 mph 62 % 0.00 in
06:52 45.2 °F 33.3 °F 30.01 in WNW 6.2 mph 9.2 mph 63 % 0.00 in
06:57 45.5 °F 33.2 °F 30.00 in West 4.7 mph 8.1 mph 62 % 0.00 in
07:02 45.8 °F 33.1 °F 30.01 in WSW 7.2 mph 9.2 mph 61 % 0.00 in
07:07 45.9 °F 32.8 °F 30.01 in SW 7.0 mph 18.4 mph 60 % 0.00 in
07:13 46.1 °F 33.4 °F 30.01 in West 6.4 mph 8.0 mph 61 % 0.00 in
07:18 46.3 °F 32.7 °F 30.01 in SSW 5.2 mph 10.4 mph 59 % 0.00 in
07:23 46.1 °F 32.6 °F 30.01 in WSW 4.5 mph 16.1 mph 59 % 0.00 in
07:28 46.0 °F 32.5 °F 30.01 in SW 9.5 mph 17.3 mph 59 % 0.00 in
07:33 45.9 °F 32.8 °F 30.02 in WNW 8.9 mph 13.8 mph 60 % 0.00 in
07:38 46.0 °F 32.9 °F 30.01 in WSW 6.1 mph 11.0 mph 60 % 0.00 in
07:43 46.1 °F 32.6 °F 30.02 in West 3.8 mph 15.0 mph 59 % 0.00 in
07:48 46.1 °F 32.1 °F 30.02 in WNW 9.5 mph 17.3 mph 58 % 0.00 in
07:53 46.1 °F 32.1 °F 30.02 in WSW 8.1 mph 11.5 mph 58 % 0.00 in
07:58 46.2 °F 32.2 °F 30.02 in WSW 8.2 mph 17.3 mph 58 % 0.00 in
08:04 46.1 °F 31.3 °F 30.02 in SW 10.6 mph 23.0 mph 56 % 0.00 in
08:09 46.2 °F 32.2 °F 30.03 in SW 6.8 mph 12.7 mph 58 % 0.00 in
08:14 46.5 °F 31.6 °F 30.03 in SW 8.0 mph 17.3 mph 56 % 0.00 in
08:19 46.6 °F 32.2 °F 30.03 in NW 8.9 mph 18.4 mph 57 % 0.00 in
08:24 46.9 °F 32.4 °F 30.03 in WSW 9.5 mph 13.8 mph 57 % 0.00 in
08:29 47.2 °F 33.2 °F 30.03 in WSW 9.8 mph 18.4 mph 58 % 0.00 in
08:34 47.5 °F 32.6 °F 30.03 in WNW 8.0 mph 12.0 mph 56 % 0.00 in
08:39 47.8 °F 32.9 °F 30.03 in WNW 9.3 mph 15.0 mph 56 % 0.00 in
08:44 48.1 °F 32.7 °F 30.03 in West 12.2 mph 19.6 mph 55 % 0.00 in
08:49 48.2 °F 32.3 °F 30.03 in WNW 4.9 mph 8.1 mph 54 % 0.00 in
08:55 48.4 °F 33.0 °F 30.03 in WNW 4.7 mph 10.4 mph 55 % 0.00 in
09:00 48.9 °F 33.4 °F 30.04 in SW 4.4 mph 12.7 mph 55 % 0.00 in
09:05 49.0 °F 32.6 °F 30.03 in West 11.7 mph 16.1 mph 53 % 0.00 in
09:10 49.0 °F 32.6 °F 30.03 in WNW 6.4 mph 13.8 mph 53 % 0.00 in
09:15 49.4 °F 33.0 °F 30.03 in NW 6.0 mph 14.0 mph 53 % 0.00 in
09:20 49.6 °F 32.7 °F 30.03 in WNW 7.4 mph 16.1 mph 52 % 0.00 in
09:25 49.4 °F 32.0 °F 30.03 in North 5.0 mph 11.0 mph 51 % 0.00 in
09:30 49.2 °F 31.8 °F 30.03 in NNW 7.2 mph 11.5 mph 51 % 0.00 in
09:35 49.0 °F 31.6 °F 30.03 in NW 5.6 mph 10.4 mph 51 % 0.00 in
09:40 48.8 °F 31.9 °F 30.03 in West 5.4 mph 18.4 mph 52 % 0.00 in
09:46 48.7 °F 32.8 °F 30.02 in West 3.4 mph 8.1 mph 54 % 0.00 in
09:51 48.8 °F 32.9 °F 30.02 in NW 8.6 mph 16.1 mph 54 % 0.00 in
09:56 49.0 °F 32.6 °F 30.02 in NW 7.5 mph 13.8 mph 53 % 0.00 in
10:06 49.6 °F 33.6 °F 30.02 in SW 3.4 mph 5.0 mph 54 % 0.00 in
10:11 49.8 °F 32.4 °F 30.02 in NW 4.6 mph 19.6 mph 51 % 0.00 in
10:16 49.9 °F 32.0 °F 30.01 in WNW 8.3 mph 19.6 mph 50 % 0.00 in
10:21 50.2 °F 32.8 °F 30.01 in NW 8.6 mph 16.1 mph 51 % 0.00 in
10:26 51.5 °F 34.0 °F 30.01 in West 6.2 mph 11.5 mph 51 % 0.00 in
10:31 52.7 °F 34.6 °F 30.01 in NW 4.6 mph 15.0 mph 50 % 0.00 in
10:36 53.1 °F 34.4 °F 30.01 in WNW 3.9 mph 10.4 mph 49 % 0.00 in
10:42 53.5 °F 33.2 °F 30.01 in West 8.6 mph 11.5 mph 46 % 0.00 in
10:47 54.1 °F 34.3 °F 30.01 in WNW 9.1 mph 13.8 mph 47 % 0.00 in
10:52 55.2 °F 34.2 °F 30.01 in WNW 4.2 mph 11.5 mph 45 % 0.00 in
10:57 56.0 °F 34.9 °F 30.01 in SW 6.9 mph 13.8 mph 45 % 0.00 in
11:02 56.6 °F 34.3 °F 30.01 in NW 4.0 mph 13.8 mph 43 % 0.00 in
11:07 57.2 °F 35.5 °F 30.01 in NNW 7.2 mph 11.5 mph 44 % 0.00 in
11:12 57.9 °F 37.8 °F 30.01 in WNW 7.5 mph 19.0 mph 47 % 0.00 in
11:22 57.2 °F 32.4 °F 30.01 in WNW 4.9 mph 11.5 mph 39 % 0.00 in
11:27 56.6 °F 33.2 °F 30.01 in West 3.7 mph 10.4 mph 41 % 0.00 in
11:33 56.1 °F 32.1 °F 30.01 in WNW 5.3 mph 12.7 mph 40 % 0.00 in
11:38 55.9 °F 33.1 °F 30.01 in WNW 8.6 mph 17.3 mph 42 % 0.00 in
11:43 56.9 °F 36.3 °F 30.01 in West 5.2 mph 9.2 mph 46 % 0.00 in
11:48 57.3 °F 33.2 °F 30.01 in West 5.0 mph 11.5 mph 40 % 0.00 in
11:53 57.3 °F 34.4 °F 30.01 in WSW 4.1 mph 9.2 mph 42 % 0.00 in
11:58 57.9 °F 36.1 °F 30.01 in SW 4.2 mph 9.2 mph 44 % 0.00 in
12:03 58.7 °F 36.8 °F 30.01 in ENE 4.4 mph 10.4 mph 44 % 0.00 in
12:08 59.5 °F 35.1 °F 30.00 in NW 5.7 mph 15.0 mph 40 % 0.00 in
12:13 59.6 °F 33.9 °F 30.00 in WSW 10.1 mph 20.0 mph 38 % 0.00 in
12:18 59.7 °F 35.3 °F 30.00 in WNW 10.1 mph 13.8 mph 40 % 0.00 in
12:24 59.8 °F 34.8 °F 30.00 in WSW 8.6 mph 15.0 mph 39 % 0.00 in
12:29 60.1 °F 34.4 °F 30.00 in WSW 8.3 mph 15.0 mph 38 % 0.00 in
12:34 60.2 °F 33.1 °F 30.00 in West 5.7 mph 13.0 mph 36 % 0.00 in
12:39 60.4 °F 33.3 °F 30.00 in West 10.8 mph 18.4 mph 36 % 0.00 in
12:44 60.7 °F 36.8 °F 30.00 in WSW 4.7 mph 13.8 mph 41 % 0.00 in
12:49 61.1 °F 33.9 °F 30.00 in WSW 9.6 mph 17.3 mph 36 % 0.00 in
12:54 61.0 °F 33.8 °F 30.00 in WSW 9.1 mph 23.0 mph 36 % 0.00 in
12:59 61.1 °F 33.2 °F 30.00 in WSW 10.0 mph 18.4 mph 35 % 0.00 in
13:09 61.8 °F 34.5 °F 29.99 in West 6.1 mph 17.3 mph 36 % 0.00 in
13:15 61.9 °F 33.9 °F 29.99 in NW 7.9 mph 12.0 mph 35 % 0.00 in
13:20 62.2 °F 34.9 °F 29.99 in NNW 9.2 mph 16.0 mph 36 % 0.00 in
13:30 62.2 °F 33.5 °F 29.99 in West 11.8 mph 20.7 mph 34 % 0.00 in
13:35 61.9 °F 33.9 °F 29.99 in WSW 10.1 mph 19.6 mph 35 % 0.00 in
13:40 62.0 °F 32.5 °F 29.99 in WNW 6.8 mph 15.0 mph 33 % 0.00 in
13:45 62.3 °F 34.3 °F 29.98 in NW 9.5 mph 15.0 mph 35 % 0.00 in
13:50 62.4 °F 32.9 °F 29.98 in NW 10.4 mph 19.6 mph 33 % 0.00 in
13:55 62.4 °F 32.9 °F 29.98 in WNW 9.7 mph 18.4 mph 33 % 0.00 in
14:00 62.5 °F 33.0 °F 29.98 in SW 11.2 mph 17.3 mph 33 % 0.00 in
14:06 62.7 °F 33.2 °F 29.98 in WSW 8.0 mph 18.4 mph 33 % 0.00 in
14:11 62.9 °F 33.3 °F 29.98 in NNW 11.5 mph 18.4 mph 33 % 0.00 in
14:16 63.1 °F 33.5 °F 29.98 in West 10.1 mph 21.0 mph 33 % 0.00 in
14:21 63.3 °F 32.1 °F 29.98 in West 3.7 mph 18.4 mph 31 % 0.00 in
14:26 63.6 °F 33.2 °F 29.98 in WNW 5.7 mph 12.7 mph 32 % 0.00 in
14:31 64.0 °F 33.5 °F 29.97 in West 7.6 mph 15.0 mph 32 % 0.00 in
14:36 64.2 °F 32.9 °F 29.97 in NW 5.7 mph 13.8 mph 31 % 0.00 in
14:41 64.3 °F 33.0 °F 29.98 in WNW 11.7 mph 18.4 mph 31 % 0.00 in
14:46 64.3 °F 35.3 °F 29.97 in SW 3.5 mph 9.2 mph 34 % 0.00 in
14:51 64.5 °F 35.5 °F 29.98 in West 7.8 mph 15.0 mph 34 % 0.00 in
14:57 64.5 °F 33.2 °F 29.97 in WSW 8.5 mph 19.6 mph 31 % 0.00 in
15:02 64.6 °F 33.3 °F 29.97 in West 12.2 mph 21.9 mph 31 % 0.00 in
15:07 64.7 °F 32.5 °F 29.98 in WSW 9.1 mph 15.0 mph 30 % 0.00 in
15:12 64.8 °F 33.4 °F 29.97 in WSW 7.5 mph 15.0 mph 31 % 0.00 in
15:17 65.0 °F 33.6 °F 29.97 in NNW 8.0 mph 16.0 mph 31 % 0.00 in
15:25 65.3 °F 33.0 °F 29.97 in WSW 9.0 mph 19.0 mph 30 % 0.00 in
15:35 65.5 °F 34.0 °F 29.97 in West 8.0 mph 21.0 mph 31 % 0.00 in
15:45 65.9 °F 34.4 °F 29.97 in West 12.0 mph 19.0 mph 31 % 0.00 in
15:55 65.7 °F 35.8 °F 29.96 in WSW 7.0 mph 20.0 mph 33 % 0.00 in
16:05 66.2 °F 33.8 °F 29.97 in West 10.0 mph 20.0 mph 30 % 0.00 in
16:15 66.1 °F 35.4 °F 29.96 in West 5.0 mph 21.0 mph 32 % 0.00 in
16:25 66.1 °F 33.7 °F 29.97 in WNW 7.0 mph 27.0 mph 30 % 0.00 in
16:35 66.2 °F 37.0 °F 29.97 in WNW 9.0 mph 21.0 mph 34 % 0.00 in
16:45 66.1 °F 37.6 °F 29.97 in WNW 9.0 mph 17.0 mph 35 % 0.00 in
16:55 66.0 °F 36.8 °F 29.97 in WNW 9.0 mph 20.0 mph 34 % 0.00 in
17:05 65.8 °F 37.4 °F 29.98 in WNW 7.0 mph 18.0 mph 35 % 0.00 in
17:15 65.7 °F 38.0 °F 29.98 in WNW 6.0 mph 16.0 mph 36 % 0.00 in
17:25 65.6 °F 37.9 °F 29.98 in WNW 3.0 mph 15.0 mph 36 % 0.00 in
17:35 65.6 °F 36.5 °F 29.98 in WNW 10.0 mph 18.0 mph 34 % 0.00 in
17:42 65.4 °F 35.5 °F 29.98 in West 10.9 mph 27.0 mph 33 % 0.00 in
17:47 65.4 °F 36.3 °F 29.98 in West 6.2 mph 12.7 mph 34 % 0.00 in
17:52 65.3 °F 36.9 °F 29.99 in WNW 8.7 mph 10.4 mph 35 % 0.00 in
17:55 65.2 °F 37.6 °F 29.99 in West 8.0 mph 14.0 mph 36 % 0.00 in
18:01 65.1 °F 36.8 °F 29.99 in West 12.1 mph 18.4 mph 35 % 0.00 in
18:16 64.9 °F 37.3 °F 29.99 in West 5.5 mph 10.4 mph 36 % 0.00 in
18:22 64.9 °F 37.3 °F 30.00 in WSW 6.3 mph 10.4 mph 36 % 0.00 in
18:27 64.8 °F 38.6 °F 30.00 in WNW 3.4 mph 11.5 mph 38 % 0.00 in
18:32 64.7 °F 39.2 °F 30.00 in NW 6.8 mph 11.5 mph 39 % 0.00 in
18:37 64.6 °F 38.4 °F 30.00 in West 6.2 mph 12.7 mph 38 % 0.00 in
18:42 64.5 °F 38.3 °F 30.00 in NNW 3.8 mph 7.0 mph 38 % 0.00 in
18:47 64.4 °F 37.5 °F 30.01 in WNW 4.8 mph 11.5 mph 37 % 0.00 in
18:52 64.3 °F 38.1 °F 30.01 in NW 7.8 mph 11.5 mph 38 % 0.00 in
18:57 64.1 °F 38.0 °F 30.01 in NW 4.6 mph 9.2 mph 38 % 0.00 in
19:02 64.1 °F 38.6 °F 30.02 in WNW 3.6 mph 13.0 mph 39 % 0.00 in
19:07 64.0 °F 37.9 °F 30.01 in WNW 7.8 mph 12.7 mph 38 % 0.00 in
19:13 63.8 °F 38.4 °F 30.02 in WSW 6.7 mph 13.8 mph 39 % 0.00 in
19:18 63.5 °F 38.1 °F 30.02 in West 5.8 mph 11.5 mph 39 % 0.00 in
19:23 63.3 °F 37.9 °F 30.02 in WSW 6.0 mph 13.8 mph 39 % 0.00 in
19:28 63.2 °F 38.5 °F 30.03 in NW 2.9 mph 5.0 mph 40 % 0.00 in
19:33 63.1 °F 38.4 °F 30.03 in SW 4.9 mph 11.5 mph 40 % 0.00 in
19:38 62.9 °F 38.2 °F 30.03 in West 5.3 mph 7.0 mph 40 % 0.00 in
19:43 62.7 °F 38.6 °F 30.03 in WNW 3.3 mph 4.6 mph 41 % 0.00 in
19:48 62.5 °F 39.1 °F 30.03 in SW 4.9 mph 7.0 mph 42 % 0.00 in
19:53 62.3 °F 38.9 °F 30.03 in WNW 3.6 mph 5.8 mph 42 % 0.00 in
19:58 62.2 °F 38.8 °F 30.03 in West 3.5 mph 4.6 mph 42 % 0.00 in
20:04 62.0 °F 39.2 °F 30.03 in West 3.2 mph 5.8 mph 43 % 0.00 in
20:09 61.8 °F 39.6 °F 30.03 in WNW 2.3 mph 3.5 mph 44 % 0.00 in
20:14 61.6 °F 39.5 °F 30.03 in SSW 1.1 mph 2.3 mph 44 % 0.00 in
20:19 61.4 °F 38.7 °F 30.04 in West 0.1 mph 2.3 mph 43 % 0.00 in
20:24 61.2 °F 38.5 °F 30.04 in West 1.4 mph 3.5 mph 43 % 0.00 in
20:29 61.0 °F 38.3 °F 30.05 in WSW 1.4 mph 3.5 mph 43 % 0.00 in
20:39 60.8 °F 39.9 °F 30.05 in WSW 0.6 mph 1.0 mph 46 % 0.00 in
20:44 60.5 °F 41.2 °F 30.06 in Calm     49 % 0.00 in
20:50 60.3 °F 42.1 °F 30.06 in Calm     51 % 0.00 in
20:55 59.9 °F 42.2 °F 30.06 in Calm     52 % 0.00 in
21:00 59.4 °F 42.7 °F 30.06 in Calm     54 % 0.00 in
21:05 58.7 °F 43.0 °F 30.06 in Calm   1.2 mph 56 % 0.00 in
21:10 58.2 °F 42.6 °F 30.07 in Calm   1.2 mph 56 % 0.00 in
21:15 57.8 °F 42.7 °F 30.07 in Calm     57 % 0.00 in
21:20 57.3 °F 42.6 °F 30.07 in Calm     58 % 0.00 in
21:25 56.7 °F 42.5 °F 30.07 in Calm     59 % 0.00 in
21:30 56.3 °F 42.1 °F 30.07 in Calm   1.2 mph 59 % 0.00 in
21:41 55.5 °F 41.8 °F 30.08 in WSW 0.2 mph 1.0 mph 60 % 0.00 in
21:46 55.1 °F 41.9 °F 30.08 in WSW 0.9 mph 2.3 mph 61 % 0.00 in
21:51 54.8 °F 41.6 °F 30.08 in Calm   1.2 mph 61 % 0.00 in
21:56 54.4 °F 41.6 °F 30.08 in WSW 0.1 mph 1.2 mph 62 % 0.00 in
22:01 54.0 °F 41.3 °F 30.08 in WSW 0.2 mph 1.2 mph 62 % 0.00 in
22:06 53.7 °F 41.0 °F 30.09 in WSW 0.4 mph 1.2 mph 62 % 0.00 in
22:11 53.5 °F 40.8 °F 30.09 in WSW 0.9 mph 2.3 mph 62 % 0.00 in
22:16 53.3 °F 40.6 °F 30.09 in WSW 2.1 mph 3.5 mph 62 % 0.00 in
22:21 53.1 °F 40.0 °F 30.09 in WSW 2.2 mph 3.5 mph 61 % 0.00 in
22:26 53.0 °F 39.5 °F 30.09 in WSW 1.3 mph 3.5 mph 60 % 0.00 in
22:32 53.0 °F 39.0 °F 30.09 in WSW 1.2 mph 2.3 mph 59 % 0.00 in
22:37 53.2 °F 39.2 °F 30.09 in WSW 1.7 mph 3.0 mph 59 % 0.00 in
22:42 53.3 °F 39.3 °F 30.09 in WSW 1.6 mph 4.0 mph 59 % 0.00 in
22:47 53.4 °F 39.0 °F 30.09 in WSW 1.4 mph 2.3 mph 58 % 0.00 in
22:52 53.5 °F 39.5 °F 30.09 in WSW 1.5 mph 3.5 mph 59 % 0.00 in
22:57 53.7 °F 39.3 °F 30.09 in WSW 1.2 mph 2.3 mph 58 % 0.00 in
23:02 53.8 °F 38.9 °F 30.10 in WSW 1.0 mph 3.5 mph 57 % 0.00 in
23:07 53.9 °F 38.6 °F 30.10 in WSW 0.1 mph 1.2 mph 56 % 0.00 in
23:12 54.0 °F 39.1 °F 30.10 in Calm     57 % 0.00 in
23:17 54.0 °F 39.1 °F 30.10 in Calm   1.2 mph 57 % 0.00 in
23:23 54.0 °F 39.1 °F 30.10 in Calm   1.2 mph 57 % 0.00 in
23:28 53.9 °F 39.5 °F 30.09 in WSW 0.1 mph 1.2 mph 58 % 0.00 in
23:33 53.8 °F 39.8 °F 30.10 in WSW 0.1 mph 1.2 mph 59 % 0.00 in
23:38 53.6 °F 39.2 °F 30.10 in Calm     58 % 0.00 in
23:43 53.5 °F 39.1 °F 30.10 in Calm     58 % 0.00 in
23:48 53.3 °F 38.9 °F 30.10 in Calm   1.2 mph 58 % 0.00 in
23:53 53.2 °F 39.2 °F 30.10 in Calm     59 % 0.00 in
23:58 53.0 °F 39.5 °F 30.10 in WSW 0.1 mph   60 % 0.00 in
Crab Meadow Weather
Compliments of Weather Underground - 2.75 mb

Script developed by  Jim McMurry - jmcmurry@mwt.net Adapted for the template by  Wim van der Kuil - Leuven-Template.eu

Weather Terms: Outlook - A hazardous weather outlook is issued daily to indicate that a hazardous weather or hydrologic event may occur in the next several days. The outlook will include information about potential severe thunderstorms , heavy rain or flooding, winter weather, extremes of heat or cold, etc., that may develop over the next 7 days with an emphasis on the first 24 hours of the forecast. It is intended to provide information to those who need considerable lead time to prepare for the event.